Find Starlink 34453

NORAD ID: 64441 Int'l Des: 2025-130 Owner: SPXS Country: US Constellation: starlink operational
LEOCIRCULAR

Live Position

Loading 3D Globe...

About Starlink 34453

Description loading...

Upcoming Passes

Passes for default location (London). Set your location on the main map for personalized predictions.

Altitude History

Loading altitude history...

Two-Line Element Set

1 64441U 25130D 26106.19674022 .00007392 00000-0 26147-3 0 9990
2 64441 53.1606 274.4560 0001378 101.4949 258.6206 15.30198960 46446
Epoch: Apr 16, 2026 • Age: 12 hours

Current Status

Altitude 494.3 km
Velocity 7.62 km/s
Sub-Earth Point -52.50°S, 70.9°E
Launch Date Jun 18, 2025
Age 0.8 years
Type internet

Technical Details

Classification Payload
Mass 575.00 kg
Dry Mass 530.00 kg
Total Mass 575.00 kg
Length 0.30 m
Diameter 4.10 m
Span 29.00 m
Shape Box + pan
Manufacturer SPXS
Bus Type Starlink V2MO
Phase Status In Orbit
Owner/State SPXS/US

Most Searched